Nebel/niedere Schichtwolken mit Cirrus-Wolken
Nebel/niedere Schichtwolken mit Cirrus-Wolken
Nebel/niedere Schichtwolken mit Cirrus-Wolken
Bedeckt
Überwiegend bewölkt mit Cirrus-Wolken
Bedeckt
Bedeckt
(°C)
13°
13°
14°
14°
15°
15°
15°
15°
16°
16°
16°
16°
16°
16°
(°C)
13°
14°
15°
16°
16°
16°
16°
NNO
NNO
N
NW
WNW
WNW
WNW
(km/h)
2-9
2-9
2-9
2-9
3-9
5-12
6-15
(mm)
0
0
0
0
0
0
0
(%)
0
0
0
0
0
0
0

Sonnenhöhe

/ -0.2°
sun-icon
UV 3
06:19
17:43
Abnehmender Mond (191°)
18:59
07:07

METAR für San Diego (KSAN)

Zeit Bedingungen Temperatur/
Taupunkt
Wind Sichtweite Wetter Wolken Druck Änderung Roh
VFR 12.8°C / 10°C 290º 3kt >10km - Broken Clouds 22000ft 1017 - KSAN 251351Z 29003KT 10SM BKN220 13/10 A3003 RMK AO2 SLP170 T01280100 $
VFR 12.2°C / 10°C variable 0kt >10km - Few Clouds 1000ft
Overcast 22000ft
1016 - KSAN 251251Z 00000KT 10SM FEW010 OVC220 12/10 A3002 RMK AO2 SLP166 T01220100 $
VFR 12.8°C / 10°C 310º 3kt >10km - Few Clouds 1000ft
Scattered Clouds 10000ft
Overcast 22000ft
1016 - KSAN 251151Z 31003KT 10SM FEW010 SCT100 OVC220 13/10 A3003 RMK AO2 SLP169 T01280100 10167 20128 57005 $
VFR 13.9°C / 10°C variable 0kt >10km - Few Clouds 900ft
Few Clouds 9000ft
Overcast 22000ft
1017 - KSAN 251051Z 00000KT 10SM FEW009 FEW090 OVC220 14/10 A3004 RMK AO2 SLP171 T01390100 $
VFR 13.3°C / 9.4°C 360º 3kt >10km - Few Clouds 1500ft
Few Clouds 10000ft
Broken Clouds 18000ft
1017 - KSAN 250951Z 36003KT 10SM FEW015 FEW100 BKN180 13/09 A3004 RMK AO2 SLP173 T01330094 $
VFR 13.9°C / 10°C variable 0kt >10km - Few Clouds 9000ft
Broken Clouds 18000ft
1017 - KSAN 250851Z 00000KT 10SM FEW090 BKN180 14/10 A3005 RMK AO2 SLP175 T01390100 56006 $
VFR 14.4°C / 10°C 360º 3kt >10km - Few Clouds 8000ft
Overcast 20000ft
1017 - KSAN 250751Z 36003KT 10SM FEW080 OVC200 14/10 A3005 RMK AO2 SLP176 T01440100 402390128 $
VFR 15°C / 9.4°C variable 0kt >10km - Few Clouds 10000ft
Overcast 20000ft
1017 - KSAN 250651Z 00000KT 10SM FEW100 OVC200 15/09 A3006 RMK AO2 SLP177 T01500094 $
VFR 16.1°C / 8.9°C variable 0kt >10km - Few Clouds 15000ft
Broken Clouds 20000ft
1018 - KSAN 250551Z 00000KT 10SM FEW150 BKN200 16/09 A3007 RMK AO2 SLP181 T01610089 10189 20156 51002 $
VFR 16.1°C / 9.4°C variable 0kt >10km - Few Clouds 15000ft
Broken Clouds 20000ft
1018 - KSAN 250451Z 00000KT 10SM FEW150 BKN200 16/09 A3007 RMK AO2 SLP181 T01610094 $
VFR 16.7°C / 8.9°C variable 0kt >10km - Broken Clouds 20000ft 1018 - KSAN 250351Z 00000KT 10SM BKN200 17/09 A3007 RMK AO2 SLP180 T01670089 $
VFR 16.7°C / 11.1°C variable 0kt >10km - Broken Clouds 20000ft 1017 - KSAN 250251Z 00000KT 10SM BKN200 17/11 A3006 RMK AO2 SLP179 T01670111 53018 $
VFR 17.2°C / 11.7°C 290º 4kt >10km - Few Clouds 15000ft
Broken Clouds 20000ft
1017 - KSAN 250151Z 29004KT 10SM FEW150 BKN200 17/12 A3004 RMK AO2 SLP173 T01720117 $
VFR 17.8°C / 11.7°C 320º 6kt >10km - Broken Clouds 20000ft 1016 - KSAN 250051Z 32006KT 10SM BKN200 18/12 A3002 RMK AO2 SLP167 T01780117 $
VFR 18.3°C / 11.1°C 330º 4kt >10km - Broken Clouds 20000ft 1016 - KSAN 242351Z 33004KT 10SM BKN200 18/11 A3001 RMK AO2 SLP161 T01830111 10239 20183 58005 $
VFR 20°C / 9.4°C 320º 4kt >10km - Broken Clouds 20000ft 1016 - KSAN 242251Z 32004KT 10SM BKN200 20/09 A3001 RMK AO2 SLP162 T02000094 $
VFR 22.8°C / 7.2°C 270º 8kt >10km - Broken Clouds 20000ft 1016 - KSAN 242151Z 27008KT 10SM BKN200 23/07 A3002 RMK AO2 SLP164 T02280072 $
VFR 22.8°C / 7.2°C 160º 3kt >10km - Broken Clouds 20000ft 1016 - KSAN 242051Z 16003KT 10SM BKN200 23/07 A3002 RMK AO2 SLP166 T02280072 58016 $
VFR 20.6°C / 7.8°C 4kt >10km - Broken Clouds 20000ft 1017 - KSAN 241951Z VRB04KT 10SM BKN200 21/08 A3006 RMK AO2 SLP178 T02060078 $
VFR 20°C / 8.3°C variable 0kt >10km - Broken Clouds 20000ft 1018 - KSAN 241851Z 00000KT 10SM BKN200 20/08 A3007 RMK AO2 SLP181 T02000083 $
VFR 18.9°C / 8.3°C 360º 3kt >10km - Broken Clouds 20000ft 1018 - KSAN 241751Z 36003KT 10SM BKN200 19/08 A3007 RMK AO2 SLP182 T01890083 10194 20128 51014 $
VFR 16.7°C / 8.3°C 290º 3kt >10km - Broken Clouds 20000ft 1017 - KSAN 241651Z 29003KT 10SM BKN200 17/08 A3006 RMK AO2 SLP178 T01670083 $
VFR 15°C / 8.3°C 300º 5kt >10km - Broken Clouds 20000ft 1017 - KSAN 241551Z 30005KT 10SM BKN200 15/08 A3005 RMK AO2 SLP176 T01500083 $
VFR 13.3°C / 8.9°C variable 0kt >10km - Broken Clouds 20000ft
Broken Clouds 25000ft
1016 - KSAN 241451Z 00000KT 10SM BKN200 BKN250 13/09 A3003 RMK AO2 SLP168 T01330089 53010 $

VFR

12.8°C / 10°C

[Mehr]
Wind 290º 3kt
Sichtweite >10km
Wetter -
Wolken Broken Clouds 22000ft
Druck 1017
Änderung -
Roh KSAN 251351Z 29003KT 10SM BKN220 13/10 A3003 RMK AO2 SLP170 T01280100 $

VFR

12.2°C / 10°C

[Mehr]
Wind variable 0kt
Sichtweite >10km
Wetter -
Wolken Few Clouds 1000ft
Overcast 22000ft
Druck 1016
Änderung -
Roh KSAN 251251Z 00000KT 10SM FEW010 OVC220 12/10 A3002 RMK AO2 SLP166 T01220100 $

VFR

12.8°C / 10°C

[Mehr]
Wind 310º 3kt
Sichtweite >10km
Wetter -
Wolken Few Clouds 1000ft
Scattered Clouds 10000ft
Overcast 22000ft
Druck 1016
Änderung -
Roh KSAN 251151Z 31003KT 10SM FEW010 SCT100 OVC220 13/10 A3003 RMK AO2 SLP169 T01280100 10167 20128 57005 $

VFR

13.9°C / 10°C

[Mehr]
Wind variable 0kt
Sichtweite >10km
Wetter -
Wolken Few Clouds 900ft
Few Clouds 9000ft
Overcast 22000ft
Druck 1017
Änderung -
Roh KSAN 251051Z 00000KT 10SM FEW009 FEW090 OVC220 14/10 A3004 RMK AO2 SLP171 T01390100 $

VFR

13.3°C / 9.4°C

[Mehr]
Wind 360º 3kt
Sichtweite >10km
Wetter -
Wolken Few Clouds 1500ft
Few Clouds 10000ft
Broken Clouds 18000ft
Druck 1017
Änderung -
Roh KSAN 250951Z 36003KT 10SM FEW015 FEW100 BKN180 13/09 A3004 RMK AO2 SLP173 T01330094 $

VFR

13.9°C / 10°C

[Mehr]
Wind variable 0kt
Sichtweite >10km
Wetter -
Wolken Few Clouds 9000ft
Broken Clouds 18000ft
Druck 1017
Änderung -
Roh KSAN 250851Z 00000KT 10SM FEW090 BKN180 14/10 A3005 RMK AO2 SLP175 T01390100 56006 $

VFR

14.4°C / 10°C

[Mehr]
Wind 360º 3kt
Sichtweite >10km
Wetter -
Wolken Few Clouds 8000ft
Overcast 20000ft
Druck 1017
Änderung -
Roh KSAN 250751Z 36003KT 10SM FEW080 OVC200 14/10 A3005 RMK AO2 SLP176 T01440100 402390128 $

VFR

15°C / 9.4°C

[Mehr]
Wind variable 0kt
Sichtweite >10km
Wetter -
Wolken Few Clouds 10000ft
Overcast 20000ft
Druck 1017
Änderung -
Roh KSAN 250651Z 00000KT 10SM FEW100 OVC200 15/09 A3006 RMK AO2 SLP177 T01500094 $

VFR

16.1°C / 8.9°C

[Mehr]
Wind variable 0kt
Sichtweite >10km
Wetter -
Wolken Few Clouds 15000ft
Broken Clouds 20000ft
Druck 1018
Änderung -
Roh KSAN 250551Z 00000KT 10SM FEW150 BKN200 16/09 A3007 RMK AO2 SLP181 T01610089 10189 20156 51002 $

VFR

16.1°C / 9.4°C

[Mehr]
Wind variable 0kt
Sichtweite >10km
Wetter -
Wolken Few Clouds 15000ft
Broken Clouds 20000ft
Druck 1018
Änderung -
Roh KSAN 250451Z 00000KT 10SM FEW150 BKN200 16/09 A3007 RMK AO2 SLP181 T01610094 $

VFR

16.7°C / 8.9°C

[Mehr]
Wind variable 0kt
Sichtweite >10km
Wetter -
Wolken Broken Clouds 20000ft
Druck 1018
Änderung -
Roh KSAN 250351Z 00000KT 10SM BKN200 17/09 A3007 RMK AO2 SLP180 T01670089 $

VFR

16.7°C / 11.1°C

[Mehr]
Wind variable 0kt
Sichtweite >10km
Wetter -
Wolken Broken Clouds 20000ft
Druck 1017
Änderung -
Roh KSAN 250251Z 00000KT 10SM BKN200 17/11 A3006 RMK AO2 SLP179 T01670111 53018 $

VFR

17.2°C / 11.7°C

[Mehr]
Wind 290º 4kt
Sichtweite >10km
Wetter -
Wolken Few Clouds 15000ft
Broken Clouds 20000ft
Druck 1017
Änderung -
Roh KSAN 250151Z 29004KT 10SM FEW150 BKN200 17/12 A3004 RMK AO2 SLP173 T01720117 $

VFR

17.8°C / 11.7°C

[Mehr]
Wind 320º 6kt
Sichtweite >10km
Wetter -
Wolken Broken Clouds 20000ft
Druck 1016
Änderung -
Roh KSAN 250051Z 32006KT 10SM BKN200 18/12 A3002 RMK AO2 SLP167 T01780117 $

VFR

18.3°C / 11.1°C

[Mehr]
Wind 330º 4kt
Sichtweite >10km
Wetter -
Wolken Broken Clouds 20000ft
Druck 1016
Änderung -
Roh KSAN 242351Z 33004KT 10SM BKN200 18/11 A3001 RMK AO2 SLP161 T01830111 10239 20183 58005 $

VFR

20°C / 9.4°C

[Mehr]
Wind 320º 4kt
Sichtweite >10km
Wetter -
Wolken Broken Clouds 20000ft
Druck 1016
Änderung -
Roh KSAN 242251Z 32004KT 10SM BKN200 20/09 A3001 RMK AO2 SLP162 T02000094 $

VFR

22.8°C / 7.2°C

[Mehr]
Wind 270º 8kt
Sichtweite >10km
Wetter -
Wolken Broken Clouds 20000ft
Druck 1016
Änderung -
Roh KSAN 242151Z 27008KT 10SM BKN200 23/07 A3002 RMK AO2 SLP164 T02280072 $

VFR

22.8°C / 7.2°C

[Mehr]
Wind 160º 3kt
Sichtweite >10km
Wetter -
Wolken Broken Clouds 20000ft
Druck 1016
Änderung -
Roh KSAN 242051Z 16003KT 10SM BKN200 23/07 A3002 RMK AO2 SLP166 T02280072 58016 $

VFR

20.6°C / 7.8°C

[Mehr]
Wind 4kt
Sichtweite >10km
Wetter -
Wolken Broken Clouds 20000ft
Druck 1017
Änderung -
Roh KSAN 241951Z VRB04KT 10SM BKN200 21/08 A3006 RMK AO2 SLP178 T02060078 $

VFR

20°C / 8.3°C

[Mehr]
Wind variable 0kt
Sichtweite >10km
Wetter -
Wolken Broken Clouds 20000ft
Druck 1018
Änderung -
Roh KSAN 241851Z 00000KT 10SM BKN200 20/08 A3007 RMK AO2 SLP181 T02000083 $

VFR

18.9°C / 8.3°C

[Mehr]
Wind 360º 3kt
Sichtweite >10km
Wetter -
Wolken Broken Clouds 20000ft
Druck 1018
Änderung -
Roh KSAN 241751Z 36003KT 10SM BKN200 19/08 A3007 RMK AO2 SLP182 T01890083 10194 20128 51014 $

VFR

16.7°C / 8.3°C

[Mehr]
Wind 290º 3kt
Sichtweite >10km
Wetter -
Wolken Broken Clouds 20000ft
Druck 1017
Änderung -
Roh KSAN 241651Z 29003KT 10SM BKN200 17/08 A3006 RMK AO2 SLP178 T01670083 $

VFR

15°C / 8.3°C

[Mehr]
Wind 300º 5kt
Sichtweite >10km
Wetter -
Wolken Broken Clouds 20000ft
Druck 1017
Änderung -
Roh KSAN 241551Z 30005KT 10SM BKN200 15/08 A3005 RMK AO2 SLP176 T01500083 $

VFR

13.3°C / 8.9°C

[Mehr]
Wind variable 0kt
Sichtweite >10km
Wetter -
Wolken Broken Clouds 20000ft
Broken Clouds 25000ft
Druck 1016
Änderung -
Roh KSAN 241451Z 00000KT 10SM BKN200 BKN250 13/09 A3003 RMK AO2 SLP168 T01330089 53010 $

TAF für San Diego (KSAN)

From till


From till Wind variable 0kt. Visibility 9700m. Few Clouds 1000ft. Overcast 22000ft.
From till Wind 300º 8kt. Visibility 9700m. Few Clouds 1500ft. Scattered Clouds 12000ft. Broken Clouds 20000ft.
From till Wind 310º 5kt. Visibility 9700m. Broken Clouds 20000ft.
From till Wind 4kt. Visibility 9700m. Scattered Clouds 1200ft. Broken Clouds 20000ft.
From till Wind 4kt. Visibility 9700m. Scattered Clouds 1500ft. Scattered Clouds 20000ft.

Roh: KSAN 251258Z 2513/2618 00000KT P6SM FEW010 OVC220 FM252000 30008KT P6SM FEW015 SCT120 BKN200 FM260100 31005KT P6SM BKN200 FM260600 VRB04KT P6SM SCT012 BKN200 FM261700 VRB04KT P6SM SCT015 SCT200

rainNOW: Regenvorhersage für San Diego und Umgebung (25km Radius)

0.0 mm
0.0 mm
0.0 mm
0.0 mm
0.0 mm
0.0 mm
0.0 mm
0.0 mm
0.0 mm
0.0 mm
0.0 mm
0.0 mm

Radar- und Niederschlags-Nowcast für San Diego

Nieselregen
Leicht
Moderat
Stark
Sehr schwer
Hagel

Die Ortsmarkierung zeigt auf San Diego. Diese Animation zeigt das Niederschlagsradar für den ausgewählten Zeitraum sowie eine 1h-Vorhersage. Orange Kreuze zeigen Blitze an. Daten bereitgestellt von nowcast.de (verfügbar in den USA, Europa, Australien). Nieselregen oder leichter Schneefall können für den Radar unsichtbar sein. Die Niederschlagsintensität ist farbcodiert und reicht von hellblau bis rot.

Aktuelle Satellitenbilder für San Diego, Vereinigte Staaten

Die Standortmarkierung ist platziert auf San Diego. [Mehr]

Das Echtzeit-Satellitenbild kombiniert sichtbares Licht während des Tages mit Infrarotstrahlung während der Nacht. Nachts ist das Bild nicht dunkel, da Infrarotstrahlung Temperaturunterschiede erkennen kann. Leider sind niedrige Wolken und Nebel nur schwer von den Bodentemperaturen zu unterscheiden und können daher nachts fast unsichtbar sein. Meteosat-Satellitenbilder für Europa werden alle 5 Minuten in Echtzeit aktualisiert. Die Bilder GOES-16 / GOES-17 (Nord- und Südamerika) und Himawari (Asien) werden alle 10 Minuten aktualisiert.

Niederschläge werden von Radar und Satelliten berechnet. Nachts sind die Niederschlagsberechnungen durch die Satelliten weniger genau als tagsüber.

© 2024 meteoblue, NOAA Satellites GOES-16 and EUMETSAT. Blitzdaten zur Verfügung gestellt von nowcast.

Zum Anfang
×
Hallo,
es scheint, als würden Sie einen Werbeblocker benutzen.

Werbung ist unerlässlich, um unsere kostenlose Website mit einzigartiger Detailtreue und Genauigkeit zu pflegen.

Bitte setzen Sie www.meteoblue.com auf die Whitelist Ihres Werbeblockers oder erwägen Sie den Kauf eines unserer Produkte:

Sie haben bereits ein Abonnement?
Dann melden Sie sich bitte an.